ATLAS 5 CENTAUR DEB, 44653

Orbit data source: Space-Track

ATLAS 5 CENTAUR DEB, 44653 is space debris in HEO originally from a launch on Wed, 17 Oct 2018 UTC launched from the Air Force Eastern Test Range (AFETR). Debris objects in space refer to the collection of defunct objects orbiting the Earth. Examples of debris include non-operational satellites, rocket bodies, and fragments generated from explosions, collisions, or faulty payload assembly.

Loading next visibility...
Identifier
44653, 2018-079P
Orbit
HEO
Country
Flag of USUS
Related business
Flag of USUnited Launch Alliance/Lockheed Martin (US)
Manufacturer
ULA Decatur
Mission
Spacecraft
Bus & Motor
Unknown
Mass
Unknown
Launch date (UTC)
2018-10-17 (7 years ago)
Launch vehicle
Unknown
Launch site
Air Force Eastern Test Range (AFETR)
Object type
Payload
Rocket body
Debris
Shape & HBR
Unknown shape, 1.1 m
Radar Cross Section
RCS unknown

Expand to show TLE details & history
Last TLE update: 10 months ago

TLE from 10 months ago
0 ATLAS 5 CENTAUR DEB
1 44653U 18079P   25024.60031684 -.00000112  00000-0  00000-0 0  9993
2 44653  13.1652  38.7562 4610591 313.8865  16.0960  2.00645605 40052
Epoch: 2025-01-24T14:24Z
TLE epoch observation values (Epoch: 2025-01-24T14:24:27.374Z)
Latitude
-0°
Longitude
58.50471°
Altitude
9,483.167 km
Speed
5.937 km/s
True Right ascension
02h 35m 07s
True Declination
0° 00' 00"
Sunlit
Object was in daylight at epoch
Visualization orbit readout
Latitude
Unknown
Longitude
Unknown
Altitude
Unknown
Speed
Unknown
Apparent Right ascension
Unknown
Apparent Declination
Unknown
Sunlit
N/A
Visualization observer readout
Local Sidereal Time
12:30:27
Azimuth
Unknown
Elevation
Unknown
Doppler factor
Unknown
Orbital elements
Apogee altitude
32,420.749 km
Perigee altitude
7,933.609 km
Semi-major axis
26,555.316 km
Eccentricity
0.46106
Inclination
13.1652°
RAAN
38.7562°
Arg. of periapsis
313.8865°
True anomaly
45.88836°
Mean anomaly
16.096°
Eccentric anomaly
28.83752°
Mean motion
0.50155 °/min
Orbital period
717.77 mins
BSTAR
0
Loading maneuver chart data...
Computing Atmospheric mass density...

Documentation

Showing up to 5 results
|